Location: Oulou
(10.7667°N, 12.5167°W)
Time: 23:04:20
(UTC+00:00)

Cosmos 1378 - Pass Details

Date: 20 September 2019
Orbit: 493 x 503 km, 82.5° (Epoch: 21 October)

Event Time Altitude Azimuth Distance (km) Brightness Sun altitude
Rises 19:22:27 0° 4° (N) 2,582 6.7 -9.4°
Reaches altitude 10° 19:24:37 10° 10° (N) 1,698 5.8 -9.9°
Maximum altitude 19:28:12 48° 85° (E) 658 3.3 -10.8°
Drops below altitude 10° 19:31:48 10° 160° (SSE) 1,693 5.6 -11.7°
Sets 19:33:57 0° 166° (SSE) 2,574 6.6 -12.2°
